Date String (YYYY-MM-DD hh:mm:ss) UTC,Instrument flags,Ambient pressure (hPa),Sample flow (lpm),Bypass flow (lpm),Sample temperature (°C),Ambient temperature (°C),ASC tube jacket temperature (°C),LED temperature (°C),Box temperature (°C),Sample RH (%),Span deviation,Mass concentration (μg/m³),Mass concentration (μg/m³),Mass concentration (μg/m³)
DateTimeUTC,F1_M11,P_M11,Q1_M11,Q2_M11,T1_M11,T2_M11,T3_M11,T4_M11,T5_M11,U1_M11,ZSPAN_M11,X0_M11,X2_M11,X1_M11
2022-09-17 16:00:00,,0825.5,5.01,0.00,30.4,29.0,00.0,39.1,32.1,18.9,0000.0,0005.09,0003.45,0003.08
2022-09-17 16:01:00,,0825.4,5.01,0.00,30.4,29.0,00.0,39.1,32.2,18.7,0000.0,0004.97,0003.43,0003.09
2022-09-17 16:02:00,,0825.4,4.99,0.00,30.4,29.0,00.0,39.1,32.2,18.8,0000.0,0004.89,0003.41,0003.09
2022-09-17 16:03:00,,0825.4,5.02,0.00,30.4,29.1,00.0,39.1,32.2,19.1,0000.0,0004.86,0003.42,0003.10
2022-09-17 16:04:00,,0825.5,5.00,0.00,30.4,29.1,00.0,39.1,32.2,19.7,0000.0,0004.85,0003.43,0003.12
2022-09-17 16:05:00,,0825.5,4.99,0.00,30.4,29.1,00.0,39.2,32.3,19.6,0000.0,0004.98,0003.43,0003.12
2022-09-17 16:06:00,,0825.4,5.01,0.00,30.5,29.1,00.0,39.2,32.3,19.8,0000.0,0004.82,0003.40,0003.12
2022-09-17 16:07:00,,0825.4,5.00,0.00,30.5,29.2,00.0,39.2,32.3,20.1,0000.0,0005.01,0003.40,0003.12
2022-09-17 16:08:00,,0825.4,5.02,0.00,30.5,29.2,00.0,39.2,32.3,19.5,0000.0,0005.23,0003.42,0003.11
2022-09-17 16:09:00,,0825.4,4.98,0.00,30.5,28.8,00.0,39.2,32.3,19.3,0000.0,0005.34,0003.42,0003.10
2022-09-17 16:10:00,,0825.4,5.01,0.00,30.5,27.6,00.0,39.2,32.3,19.5,0000.0,0005.39,0003.42,0003.09
2022-09-17 16:11:00,,0825.4,5.01,0.00,30.5,27.5,00.0,39.1,32.3,19.6,0000.0,0005.47,0003.43,0003.08
2022-09-17 16:12:00,,0825.4,5.00,0.00,30.4,27.7,00.0,39.1,32.1,19.9,0000.0,0005.66,0003.45,0003.09
2022-09-17 16:13:00,,0825.4,5.01,0.00,30.4,27.9,00.0,39.1,32.1,19.8,0000.0,0005.77,0003.46,0003.10
2022-09-17 16:14:00,,0825.4,5.00,0.00,30.4,28.2,00.0,39.1,32.0,19.3,0000.0,0005.73,0003.44,0003.09
2022-09-17 16:15:00,,0825.4,5.00,0.00,30.3,28.4,00.0,39.1,32.0,19.2,0000.0,0006.35,0003.42,0003.07
2022-09-17 16:16:00,,0825.4,5.00,0.00,30.3,28.5,00.0,39.1,32.0,19.0,0000.0,0006.43,0003.45,0003.07
2022-09-17 16:17:00,,0825.4,5.00,0.00,30.3,28.6,00.0,39.1,32.1,18.8,0000.0,0007.10,0003.47,0003.07
2022-09-17 16:18:00,,0825.4,5.00,0.00,30.3,28.7,00.0,39.1,32.1,18.5,0000.0,0007.20,0003.48,0003.08
2022-09-17 16:19:00,,0825.4,5.00,0.00,30.3,28.8,00.0,39.1,32.1,18.9,0000.0,0007.21,0003.48,0003.09
2022-09-17 16:20:00,,0825.4,5.00,0.00,30.3,28.9,00.0,39.1,32.1,18.7,0000.0,0007.26,0003.50,0003.10
2022-09-17 16:21:00,,0825.4,4.99,0.00,30.3,28.9,00.0,39.1,32.1,18.4,0000.0,0007.28,0003.51,0003.12
2022-09-17 16:22:00,,0825.4,5.01,0.00,30.3,29.0,00.0,39.1,32.1,18.1,0000.0,0007.38,0003.53,0003.13
2022-09-17 16:23:00,,0825.4,4.99,0.00,30.4,29.0,00.0,39.1,32.1,18.4,0000.0,0007.35,0003.52,0003.14
2022-09-17 16:24:00,,0825.4,5.01,0.00,30.4,29.0,00.0,39.1,32.2,18.6,0000.0,0007.31,0003.52,0003.13
2022-09-17 16:25:00,,0825.4,4.99,0.00,30.4,29.0,00.0,39.1,32.2,18.5,0000.0,0007.23,0003.51,0003.13
2022-09-17 16:26:00,,0825.4,5.01,0.00,30.4,29.1,00.0,39.1,32.2,18.6,0000.0,0006.82,0003.53,0003.14
2022-09-17 16:27:00,,0825.4,5.00,0.00,30.4,29.1,00.0,39.2,32.2,18.6,0000.0,0006.33,0003.49,0003.14
2022-09-17 16:28:00,,0825.4,5.02,0.00,30.4,29.1,00.0,39.2,32.2,18.8,0000.0,0006.19,0003.49,0003.13
2022-09-17 16:29:00,,0825.4,5.00,0.00,30.4,29.1,00.0,39.2,32.2,18.8,0000.0,0006.82,0003.48,0003.13
2022-09-17 16:30:00,,0825.4,5.01,0.00,30.5,29.1,00.0,39.2,32.3,18.6,0000.0,0006.94,0003.47,0003.14
2022-09-17 16:31:00,,0825.3,5.01,0.00,30.5,29.0,00.0,39.2,32.3,18.4,0000.0,0006.82,0003.47,0003.15
2022-09-17 16:32:00,,0825.4,5.00,0.00,30.5,27.9,00.0,39.2,32.3,18.4,0000.0,0006.89,0003.47,0003.15
2022-09-17 16:33:00,,0825.4,4.99,0.00,30.4,26.7,00.0,39.1,32.1,18.4,0000.0,0006.86,0003.47,0003.15
2022-09-17 16:34:00,,0825.3,5.00,0.00,30.4,26.7,00.0,39.0,32.1,18.4,0000.0,0006.64,0003.45,0003.15
2022-09-17 16:35:00,,0825.3,5.00,0.00,30.3,27.0,00.0,39.0,31.9,18.3,0000.0,0006.64,0003.47,0003.16
2022-09-17 16:36:00,,0825.3,5.00,0.00,30.2,27.3,00.0,39.0,31.8,18.5,0000.0,0006.73,0003.49,0003.17
2022-09-17 16:37:00,,0825.4,5.00,0.00,30.2,27.6,00.0,38.9,31.8,18.5,0000.0,0006.80,0003.52,0003.19
2022-09-17 16:38:00,,0825.4,5.00,0.00,30.1,27.9,00.0,38.9,31.8,18.9,0000.0,0006.83,0003.53,0003.21
2022-09-17 16:39:00,,0825.3,4.99,0.00,30.1,28.1,00.0,38.9,31.8,19.1,0000.0,0006.69,0003.54,0003.23
2022-09-17 16:40:00,,0825.3,5.01,0.00,30.1,28.2,00.0,38.9,31.8,19.1,0000.0,0005.77,0003.53,0003.25
2022-09-17 16:41:00,,0825.3,4.99,0.00,30.1,28.4,00.0,38.9,31.9,18.8,0000.0,0005.68,0003.55,0003.27
2022-09-17 16:42:00,,0825.3,5.01,0.00,30.1,28.5,00.0,38.9,31.9,18.5,0000.0,0006.89,0003.59,0003.29
2022-09-17 16:43:00,,0825.3,4.99,0.00,30.1,28.6,00.0,38.9,31.9,18.7,0000.0,0006.72,0003.59,0003.30
2022-09-17 16:44:00,,0825.3,5.02,0.00,30.1,28.6,00.0,38.9,31.9,19.0,0000.0,0006.71,0003.59,0003.31
2022-09-17 16:45:00,,0825.3,4.99,0.00,30.1,28.7,00.0,38.9,31.9,19.3,0000.0,0006.81,0003.61,0003.33
2022-09-17 16:46:00,,0825.3,5.01,0.00,30.1,28.8,00.0,38.9,32.0,19.0,0000.0,0006.93,0003.64,0003.35
2022-09-17 16:47:00,,0825.3,5.00,0.00,30.2,28.8,00.0,38.9,32.0,18.7,0000.0,0006.91,0003.64,0003.36
2022-09-17 16:48:00,,0825.3,4.99,0.00,30.2,28.9,00.0,38.9,32.0,18.8,0000.0,0006.73,0003.62,0003.36
2022-09-17 16:49:00,,0825.2,5.00,0.00,30.2,28.9,00.0,38.9,32.0,18.6,0000.0,0006.84,0003.63,0003.37
2022-09-17 16:50:00,,0825.2,4.99,0.00,30.2,28.9,00.0,38.9,32.0,18.6,0000.0,0007.53,0003.66,0003.37
2022-09-17 16:51:00,,0825.2,4.99,0.00,30.2,28.9,00.0,39.0,32.1,18.4,0000.0,0007.73,0003.66,0003.38
2022-09-17 16:52:00,,0825.2,5.01,0.00,30.2,29.0,00.0,39.0,32.1,18.5,0000.0,0007.42,0003.66,0003.38
2022-09-17 16:53:00,,0825.2,5.00,0.00,30.3,29.0,00.0,39.0,32.1,18.4,0000.0,0006.40,0003.64,0003.37
2022-09-17 16:54:00,,0825.2,5.01,0.00,30.3,29.0,00.0,39.0,32.1,18.3,0000.0,0006.41,0003.64,0003.36
2022-09-17 16:55:00,,0825.3,5.00,0.00,30.3,29.0,00.0,39.0,32.1,18.5,0000.0,0007.41,0003.64,0003.36
2022-09-17 16:56:00,,0825.2,5.01,0.00,30.3,29.0,00.0,39.0,32.1,18.4,0000.0,0008.18,0003.64,0003.35
2022-09-17 16:57:00,,0825.2,5.00,0.00,30.3,29.1,00.0,39.1,32.1,18.1,0000.0,0008.18,0003.65,0003.34
2022-09-17 16:58:00,,0825.2,5.01,0.00,30.4,29.1,00.0,39.1,32.2,18.4,0000.0,0008.16,0003.62,0003.33
2022-09-17 16:59:00,,0825.2,5.00,0.00,30.4,29.1,00.0,39.1,32.2,18.5,0000.0,0008.17,0003.61,0003.32
